Погода в Пятихатках

Украина / Днепропетровская область     48°24′49″N   33°42′10″E
темп.,
°C
ветер,
м/с
пор.,
м/с
влажн.,
%
обл.,
%
осадки,
мм/ч
давл.,
гПа
погр.,
м
20 июня, вс
вс2000:00+20всв51181100 0.1 1016324
03:00+19всв7167997 0.1 1015477
06:00+18в7167597 0.0 1015457
09:00+21в81665100 0.1 1015760
12:00+23вюв6105883 0.0 1015889
15:00+26в8114987 0.0 10141459
18:00+25вюв613640 0.0 10131569
21:00+20в47835 0.0 1013122
21 июня, пн
пн2100:00+18в48893 0.0 1013159
03:00+18в359210 0.0 101376
06:00+18св348883 0.0 101388
09:00+23всв456990 0.0 1013412
12:00+27в55600 0.0 1012990
15:00+28вюв565710 0.0 10121349
18:00+28в456428 0.0 10121359
21:00+23в47745 0.0 1013123
22 июня, вт
вт2200:00+22всв367391 0.1 1012102
03:00+20св3587100 0.7 101286
06:00+19всв51081100 0.0 1011223
09:00+22в596641 0.0 1012438
12:00+27вюв795280 0.4 1012870
15:00+29вюв674581 0.7 10131238
18:00+28вюв585459 0.0 1013764
21:00+23в34690 0.0 101347
23 июня, ср
ср2300:00+21всв227246 0.0 101317
03:00+20ссв348252 0.0 101365
06:00+19св3485100 0.0 101294
09:00+24всв4669100 0.0 1012359
12:00+27вюв586255 0.0 1013720
15:00+30юв68534 0.0 10141362
18:00+30юв355797 0.0 10141290
21:00+24в4779100 0.1 1015115
24 июня, чт
чт2400:00+22вюв3375100 0.0 101630
03:00+22св3371100 0.0 101629
06:00+21ссв4782100 0.0 1015141
09:00+25св69646 0.0 1016375
12:00+30вюв6843100 0.0 1016905
15:00+30в6741100 0.0 1016880
18:00+27всв4761100 0.0 1016300
21:00+24всв3463100 0.0 101737